Home > Weather > Merseburg > Past weeks

Flag for Germany Past Weather in Merseburg, Saxony-Anhalt, Germany — Yesterday and Last 2 Weeks

Now
73 °F

Sprinkles. Scattered clouds.


Feels Like: 75 °F
Forecast: 58 / 79 °F
Wind: 7 mph from South

Location: Leipzig-Schkeuditz

Current Time: Jul 27, 2016 at 7:23:57 PM

Latest Report: Jul 27, 2016 at 6:50 PM


Visibility: N/A

Pressure: 29.95 "Hg

Humidity: 74%

Dew Point: 64 °F

Location of MerseburgLocation

Past Weather in Merseburg — Graph

°F

Merseburg Temperature Yesterday

Maximum temperature yesterday: 81 °F (at 6:50 PM)
Minimum temperature yesterday: 66 °F (at 5:50 AM)
Average temperature yesterday: 72 °F

High & Low Weather Summary for the Past Weeks

 TemperatureHumidityPressure
High88 °F (Jul 22, 3:20 PM)100% (Jul 14, 7:20 AM)30.27 "Hg (Jul 14, 7:20 AM)
Low48 °F (Jul 16, 5:50 AM)25% (Jul 23, 1:50 PM)29.86 "Hg (Jul 12, 6:20 PM)
Average69 °F68%30.06 "Hg
* Reported Jul 12 6:20 PM — Jul 27 6:20 PM, Merseburg, Weather by CustomWeather, © 2016

Note: Actual official high and low records may vary slightly from our data, if they occured in-between our weather recording intervals... More about our weather records

Advertising

Merseburg Weather History for the Previous 24 Hours

Scroll right to see more
 ConditionsComfort  
Time TempWeatherWind HumidityBarometerVisibility
6:20 PM
Wed, Jul 27
73 °FPartly sunny.9 mph74%29.95 "HgN/A
5:50 PM73 °FPartly sunny.13 mph78%29.95 "HgN/A
5:20 PM73 °FPartly sunny.10 mph74%29.95 "HgN/A
4:50 PM73 °FBroken clouds.8 mph74%29.95 "HgN/A
4:20 PM72 °FBroken clouds.10 mph83%29.98 "HgN/A
3:50 PM72 °FSprinkles. Scattered clouds.5 mph83%29.98 "HgN/A
3:20 PM72 °FSprinkles. Partly sunny.8 mph83%29.95 "HgN/A
2:50 PM73 °FSprinkles. Scattered clouds.16 mph83%29.95 "HgN/A
2:20 PM66 °FThunderstorms. Partly sunny.10 mph88%29.95 "HgN/A
1:50 PM79 °FThunderstorms. Scattered clouds.7 mph61%29.95 "HgN/A
1:20 PM81 °FScattered showers. Broken clouds.6 mph58%29.95 "HgN/A
12:50 PM79 °FBroken clouds.5 mph65%29.98 "HgN/A
12:20 PM79 °FBroken clouds.5 mph61%29.98 "HgN/A
11:50 AM79 °FPartly sunny.5 mph65%29.98 "HgN/A
11:20 AM77 °FPartly sunny.7 mph65%30.01 "HgN/A
10:50 AM77 °FPartly sunny.7 mph65%30.01 "HgN/A
10:20 AM73 °FSunny.8 mph78%30.01 "Hg10 mi
9:50 AM73 °FSunny.7 mph74%30.01 "Hg10 mi
9:20 AM73 °FPartly sunny.8 mph74%30.01 "HgN/A
8:50 AM72 °FPartly sunny.9 mph78%30.01 "HgN/A
8:20 AM70 °FBroken clouds.10 mph83%30.01 "HgN/A
7:50 AM68 °FThundershowers. Broken clouds.7 mph88%30.04 "HgN/A
7:20 AM66 °FPartly sunny.7 mph94%30.04 "Hg6 mi
6:50 AM64 °FClear.7 mph100%30.04 "Hg4 mi
6:20 AM64 °FClear.7 mph100%30.04 "Hg4 mi
5:50 AM64 °FClear.5 mph94%30.04 "Hg4 mi
5:20 AM64 °FClear.3 mph94%30.04 "Hg4 mi
4:50 AM64 °FPassing clouds.3 mph94%30.04 "HgN/A
4:20 AM64 °FClear.6 mph94%30.04 "Hg10 mi
3:50 AM66 °FPassing clouds.6 mph94%30.04 "HgN/A
3:20 AM66 °FClear.3 mph88%30.07 "Hg10 mi
2:50 AM68 °FClear.5 mph88%30.07 "Hg10 mi
2:20 AM66 °FClear.5 mph88%30.07 "Hg10 mi
1:50 AM66 °FClear.6 mph88%30.07 "Hg10 mi
1:20 AM68 °FClear.5 mph83%30.09 "Hg10 mi
12:50 AM68 °FPartly cloudy.5 mph78%30.09 "HgN/A
12:20 AM70 °FPartly cloudy.3 mph69%30.09 "HgN/A
11:50 PM
Tue, Jul 26
72 °FPartly cloudy.3 mph65%30.09 "HgN/A
11:20 PM73 °FPartly cloudy.2 mph65%30.09 "HgN/A
10:50 PM72 °FPassing clouds.2 mph69%30.09 "HgN/A
10:20 PM72 °FPartly cloudy.3 mph69%30.09 "HgN/A
9:50 PM73 °FPassing clouds.3 mph61%30.09 "HgN/A
9:20 PM73 °FPartly sunny.6 mph65%30.09 "HgN/A
8:50 PM75 °FPartly sunny.3 mph61%30.09 "HgN/A
8:20 PM77 °FPartly sunny.3 mph57%30.09 "HgN/A
7:50 PM79 °FBroken clouds.3 mph54%30.09 "HgN/A
7:20 PM79 °FBroken clouds.5 mph54%30.09 "HgN/A
Weather by CustomWeather, © 2016

See weather overviewHow to use our weather pages